Location: Archemont
(49.1579°N, 1.7598°E)
Time: 14:25:59
(UTC+00:00)

Transit 2A - Pass Details

Date: 22 April 2024
Orbit: 594 x 958 km, 66.7° (Epoch: 27 May)

Event Time Altitude Azimuth Distance (km) Brightness Sun altitude
Rises 15:44:44 0° 313° (NW) 3,302 9.7 29.9°
Reaches altitude 10° 15:47:39 10° 297° (WNW) 2,434 9.4 29.5°
Maximum altitude 15:51:40 20° 251° (WSW) 1,881 10.6 28.8°
Drops below altitude 10° 15:55:55 10° 206° (SSW) 2,580 9.4 28.2°
Sets 15:59:07 0° 191° (S) 3,563 9.8 27.7°
